FW4298 Weather Reports


Display with metric or nautical units.
time (UTC)temp
F
wind
direction
speed
MPH
gust
MPH
rain 1hr
in
rain 24hr
in
rain mn
in
humidity
%
barometer
mb
20260504011530 70 156 2.0 6.0 0.00 0.00 0.00 54 1018.2
20260504011030 71 157 2.0 7.0 0.00 0.00 0.00 54 1018.3
20260504010530 71 160 2.0 7.0 0.00 0.00 0.00 54 1018.3
20260504010030 71 155 2.0 8.0 0.00 0.00 0.00 53 1018.4
20260504005530 72 153 2.0 8.0 0.00 0.00 0.00 53 1018.3
20260504005031 72 159 2.0 8.0 0.00 0.00 0.00 53 1018.3
20260504004530 72 145 3.0 8.0 0.00 0.00 0.00 52 1018.3
20260504004031 73 161 4.0 11.0 0.00 0.00 0.00 50 1018.2
20260504003530 73 170 5.0 11.0 0.00 0.00 0.00 50 1018.2
20260504003031 73 166 4.0 9.0 0.00 0.00 0.00 50 1018.2
20260504002530 74 173 4.0 11.0 0.00 0.00 0.00 50 1018.3
20260504002506 74 155 4.0 11.0 0.00 0.00 0.00 49 1018.4
20260504002500 74 167 4.0 8.0 0.00 0.00 0.00 48 1018.3
20260504001031 74 154 5.0 11.0 0.00 0.00 0.00 48 1018.4
20260504000530 74 169 5.0 11.0 0.00 0.00 0.00 48 1018.5
20260504000031 74 160 5.0 11.0 0.00 0.00 0.00 47 1018.6
20260503235530 75 181 5.0 11.0 0.00 0.00 0.00 49 1018.7
20260503235030 75 178 4.0 11.0 0.00 0.00 0.00 48 1019.0
20260503235012 75 158 4.0 8.0 0.00 0.00 0.00 48 1018.9
20260503234031 76 178 4.0 9.0 0.00 0.00 0.00 47 1018.9
20260503233528 76 163 5.0 11.0 0.00 0.00 0.00 48 1018.8
20260503233255 76 144 5.0 11.0 0.00 0.00 0.00 47 1018.9
20260503232515 76 165 4.0 9.0 0.00 0.00 0.00 47 1019.0
20260503232010 76 155 4.0 8.0 0.00 0.00 0.00 47 1019.0
20260503231505 76 166 4.0 8.0 0.00 0.00 0.00 46 1019.0
20260503231006 76 146 4.0 12.0 0.00 0.00 0.00 44 1019.0
20260503230506 77 171 4.0 12.0 0.00 0.00 0.00 44 1018.9
20260503230238 77 166 4.0 12.0 0.00 0.00 0.00 44 1018.8
20260503225506 78 200 6.0 15.0 0.00 0.00 0.00 42 1018.7
20260503225005 78 182 6.0 15.0 0.00 0.00 0.00 44 1019.0
20260503224503 78 171 6.0 17.0 0.00 0.00 0.00 43 1019.1
20260503224004 78 180 7.0 17.0 0.00 0.00 0.00 44 1019.0
20260503223504 78 175 7.0 13.0 0.00 0.00 0.00 45 1019.0
20260503223004 78 146 7.0 14.0 0.00 0.00 0.00 43 1019.2
20260503222734 78 207 7.0 14.0 0.00 0.00 0.00 42 1019.2
20260503222233 78 173 6.0 12.0 0.00 0.00 0.00 43 1019.3
20260503221504 78 202 6.0 14.0 0.00 0.00 0.00 42 1019.3
20260503221004 78 185 6.0 14.0 0.00 0.00 0.00 41 1019.4
20260503220504 79 201 6.0 14.0 0.00 0.00 0.00 41 1019.5
20260503220004 78 159 6.0 13.0 0.00 0.00 0.00 43 1019.5
20260503215504 78 161 6.0 14.0 0.00 0.00 0.00 44 1019.6
20260503215001 78 155 6.0 14.0 0.00 0.00 0.00 44 1019.5
20260503214455 78 172 7.0 17.0 0.00 0.00 0.00 42 1019.7
20260503213949 78 196 6.0 17.0 0.00 0.00 0.00 44 1019.7
20260503213450 79 182 6.0 16.0 0.00 0.00 0.00 42 1019.9
20260503212950 79 161 5.0 16.0 0.00 0.00 0.00 44 1020.2
20260503212450 79 164 5.0 12.0 0.00 0.00 0.00 44 1020.2
20260503212218 78 167 6.0 14.0 0.00 0.00 0.00 44 1020.2
20260503211447 78 176 6.0 14.0 0.00 0.00 0.00 44 1020.4
20260503210947 78 173 6.0 12.0 0.00 0.00 0.00 42 1020.3
20260503210448 78 169 6.0 12.0 0.00 0.00 0.00 41 1020.4
20260503205948 79 156 5.0 12.0 0.00 0.00 0.00 43 1020.6
20260503205448 79 194 7.0 14.0 0.00 0.00 0.00 43 1020.7
20260503204947 80 178 8.0 14.0 0.00 0.00 0.00 44 1020.8
20260503204447 80 185 6.0 13.0 0.00 0.00 0.00 40 1020.6
20260503203948 80 115 5.0 12.0 0.00 0.00 0.00 43 1020.7
20260503203447 80 172 6.0 14.0 0.00 0.00 0.00 41 1020.8
20260503202948 79 170 6.0 14.0 0.00 0.00 0.00 44 1021.1
20260503202936 79 123 5.0 11.0 0.00 0.00 0.00 43 1020.9
20260503201947 79 170 5.0 16.0 0.00 0.00 0.00 40 1021.1
20260503201447 79 155 5.0 16.0 0.00 0.00 0.00 40 1021.3
20260503200947 79 165 7.0 16.0 0.00 0.00 0.00 42 1021.4
20260503200447 80 207 6.0 16.0 0.00 0.00 0.00 42 1021.3
20260503200213 80 194 6.0 14.0 0.00 0.00 0.00 41 1021.4
20260503195446 79 163 6.0 17.0 0.00 0.00 0.00 40 1021.6
20260503194946 79 162 7.0 17.0 0.00 0.00 0.00 42 1021.6
20260503194446 79 176 7.0 19.0 0.00 0.00 0.00 42 1021.7
20260503193946 79 182 6.0 19.0 0.00 0.00 0.00 42 1021.7
20260503193445 79 155 6.0 17.0 0.00 0.00 0.00 40 1021.8
20260503192945 79 175 7.0 17.0 0.00 0.00 0.00 43 1021.8
20260503192445 79 166 7.0 14.0 0.00 0.00 0.00 41 1021.8
20260503191945 79 142 7.0 15.0 0.00 0.00 0.00 41 1021.9
20260503191445 78 159 7.0 15.0 0.00 0.00 0.00 41 1021.9
20260503190945 78 160 7.0 17.0 0.00 0.00 0.00 43 1021.9
20260503190445 78 216 7.0 17.0 0.00 0.00 0.00 42 1022.2
20260503185945 78 184 6.0 14.0 0.00 0.00 0.00 44 1022.1
20260503185703 78 146 6.0 15.0 0.00 0.00 0.00 45 1022.2
20260503184945 78 197 6.0 15.0 0.00 0.00 0.00 43 1022.3
20260503184446 78 174 6.0 15.0 0.00 0.00 0.00 42 1022.4
20260503183946 78 128 6.0 15.0 0.00 0.00 0.00 43 1022.4
20260503183445 78 168 6.0 16.0 0.00 0.00 0.00 45 1022.6
20260503182945 77 184 6.0 16.0 0.00 0.00 0.00 44 1022.6
20260503182446 77 150 7.0 15.0 0.00 0.00 0.00 44 1022.7
20260503181946 77 187 6.0 15.0 0.00 0.00 0.00 44 1022.8
20260503181445 78 203 4.0 14.0 0.00 0.00 0.00 43 1022.9
20260503180945 78 240 5.0 14.0 0.00 0.00 0.00 45 1023.0
20260503180446 77 159 6.0 14.0 0.00 0.00 0.00 46 1023.1
20260503175942 77 188 5.0 14.0 0.00 0.00 0.00 42 1023.3
20260503175443 78 163 5.0 13.0 0.00 0.00 0.00 48 1023.5
20260503174943 77 175 5.0 13.0 0.00 0.00 0.00 45 1023.5
20260503174443 77 188 6.0 14.0 0.00 0.00 0.00 45 1023.6
20260503173943 77 180 7.0 14.0 0.00 0.00 0.00 48 1023.7
20260503173440 77 118 7.0 13.0 0.00 0.00 0.00 48 1023.7
20260503172939 77 157 6.0 13.0 0.00 0.00 0.00 46 1023.8
20260503172435 76 152 5.0 13.0 0.00 0.00 0.00 45 1023.8
20260503171934 76 192 5.0 12.0 0.00 0.00 0.00 53 1023.8
20260503171433 76 214 3.0 11.0 0.00 0.00 0.00 51 1024.0
20260503171206 75 190 3.0 10.0 0.00 0.00 0.00 49 1024.1
20260503170433 75 184 4.0 10.0 0.00 0.00 0.00 48 1024.1
20260503160138 73 186 5.0 15.0 0.00 0.00 0.00 52 1024.6
20260503150903 71 209 3.0 7.0 0.00 0.00 0.00 61 1024.6
20260503150404 70 232 4.0 8.0 0.00 0.00 0.00 63 1024.6
20260503150134 70 245 4.0 8.0 0.00 0.00 0.00 63 1024.5
20260503130831 58 239 2.0 5.0 0.00 0.00 0.00 83 1024.1
20260503130330 57 233 1.0 5.0 0.00 0.00 0.00 85 1024.0
20260503110823 48 225 1.0 3.0 0.00 0.00 0.00 94 1022.8
20260503110321 48 224 1.0 3.0 0.00 0.00 0.00 93 1022.7
20260503090308 51 217 1.0 4.0 0.00 0.00 0.00 93 1022.7
20260503081303 50 223 1.0 4.0 0.00 0.00 0.00 94 1022.7
20260503080802 50 221 1.0 4.0 0.00 0.00 0.00 93 1022.7
20260503080303 50 211 1.0 4.0 0.00 0.00 0.00 93 1022.7
20260503072243 51 195 0.0 1.0 0.00 0.00 0.00 93 1023.1
20260503071737 51 195 0.0 2.0 0.00 0.00 0.00 93 1023.0
20260503071231 51 0 1.0 2.0 0.00 0.00 0.00 92 1023.1
20260503070725 51 195 1.0 2.0 0.00 0.00 0.00 92 1023.1
20260503070219 51 0 1.0 3.0 0.00 0.00 0.00 92 1023.1
20260503054922 53 115 0.0 0.0 0.00 0.00 0.00 92 1023.3
20260503054202 53 116 0.0 0.0 0.00 0.00 0.00 92 1023.4
20260503053702 53 115 0.0 0.0 0.00 0.00 0.00 91 1023.4
20260503053203 53 115 0.0 0.0 0.00 0.00 0.00 92 1023.6
20260503052703 53 115 0.0 0.0 0.00 0.00 0.00 91 1023.5
20260503052203 53 115 0.0 0.0 0.00 0.00 0.00 91 1023.6
20260503051658 53 115 0.0 0.0 0.00 0.00 0.00 91 1023.6
20260503051156 53 115 0.0 0.0 0.00 0.00 0.00 91 1023.5
20260503050655 53 115 0.0 0.0 0.00 0.00 0.00 91 1023.5
20260503050155 53 112 0.0 0.0 0.00 0.00 0.00 90 1023.4
20260503045654 54 111 0.0 0.0 0.00 0.00 0.00 90 1023.3
20260503045155 54 112 0.0 0.0 0.00 0.00 0.00 90 1023.3
20260503044654 54 112 0.0 0.0 0.00 0.00 0.00 90 1023.3
20260503044417 54 106 0.0 0.0 0.00 0.00 0.00 90 1023.1
20260503043654 54 106 0.0 0.0 0.00 0.00 0.00 90 1023.3
20260503043421 54 106 0.0 0.0 0.00 0.00 0.00 89 1023.4
20260503042652 55 106 0.0 0.0 0.00 0.00 0.00 89 1023.3
20260503042153 55 107 0.0 0.0 0.00 0.00 0.00 89 1023.3
20260503041913 55 105 0.0 0.0 0.00 0.00 0.00 88 1023.3
20260503041412 55 106 0.0 0.0 0.00 0.00 0.00 88 1023.1
20260503040653 55 105 0.0 0.0 0.00 0.00 0.00 88 1023.0
20260503040152 56 105 0.0 0.0 0.00 0.00 0.00 88 1023.0
20260503035652 56 105 0.0 0.0 0.00 0.00 0.00 87 1023.0
20260503035152 56 105 0.0 0.0 0.00 0.00 0.00 87 1023.0
20260503034652 56 105 0.0 0.0 0.00 0.00 0.00 86 1023.0
20260503034152 56 105 0.0 0.0 0.00 0.00 0.00 86 1023.0
20260503033652 56 107 0.0 1.0 0.00 0.00 0.00 86 1022.9
20260503033152 56 104 1.0 2.0 0.00 0.00 0.00 86 1022.9
20260503032918 57 105 1.0 3.0 0.00 0.00 0.00 86 1022.9
20260503032903 56 104 1.0 3.0 0.00 0.00 0.00 86 1022.9
20260503031652 56 104 1.0 3.0 0.00 0.00 0.00 85 1022.8
20260503031645 56 0 1.0 3.0 0.00 0.00 0.00 86 1022.7
20260503030653 57 103 1.0 2.0 0.00 0.00 0.00 86 1022.6
20260503030153 57 104 1.0 3.0 0.00 0.00 0.00 85 1022.6
20260503025652 57 103 1.0 3.0 0.00 0.00 0.00 85 1022.6
20260503025152 57 103 1.0 3.0 0.00 0.00 0.00 84 1022.7
20260503024652 58 96 1.0 3.0 0.00 0.00 0.00 84 1022.6
20260503024417 58 97 1.0 2.0 0.00 0.00 0.00 84 1022.6
20260503023652 58 97 0.0 2.0 0.00 0.00 0.00 83 1022.5
20260503023150 58 98 0.0 0.0 0.00 0.00 0.00 83 1022.3
20260503022650 58 95 0.0 0.0 0.00 0.00 0.00 82 1022.1
20260503022148 58 96 0.0 0.0 0.00 0.00 0.00 82 1022.0
20260503021648 58 96 0.0 0.0 0.00 0.00 0.00 82 1022.0
20260503021146 59 95 0.0 0.0 0.00 0.00 0.00 81 1022.0
20260503020644 59 95 0.0 0.0 0.00 0.00 0.00 81 1022.0
20260503020142 59 95 0.0 0.0 0.00 0.00 0.00 80 1022.0
20260503015642 60 96 0.0 0.0 0.00 0.00 0.00 79 1021.9
20260503015142 60 95 0.0 0.0 0.00 0.00 0.00 78 1021.9
20260503014909 61 96 0.0 0.0 0.00 0.00 0.00 77 1022.0
20260503014136 61 95 0.0 0.0 0.00 0.00 0.00 76 1021.9
20260503013637 62 95 0.0 0.0 0.00 0.00 0.00 76 1021.9
20260503013134 62 95 0.0 0.0 0.00 0.00 0.00 74 1022.0
20260503012631 63 96 0.0 0.0 0.00 0.00 0.00 73 1021.9
20260503012129 63 95 0.0 0.0 0.00 0.00 0.00 72 1021.9